Printer-friendly version

IAU Minor Planet Center

Minor Planet Center

MPEC 2007-H05 : 2007 GY5

The following Minor Planet Electronic Circular may be linked-to from your own Web pages, but must not otherwise be redistributed electronically.


Read MPEC 2007-H04 Read MPEC 2007-H06


M.P.E.C. 2007-H05                                Issued 2007 Apr. 16, 09:46 UT

     The Minor Planet Electronic Circulars contain information on unusual
         minor planets and routine data on comets.  They are published
   on behalf of Commission 20 of the International Astronomical Union by the
          Minor Planet Center, Smithsonian Astrophysical Observatory,
                          Cambridge, MA 02138, U.S.A.

             Prepared using the Tamkin Foundation Computer Network

                              MPC@CFA.HARVARD.EDU
          URL http://www.cfa.harvard.edu/iau/mpc.html  ISSN 1523-6714

                                   2007 GY5

Observations:
     K07G05Y* C2007 04 15.32082 12 59 29.47 +07 49 18.8          20.4 V EH005G96
     K07G05Y  C2007 04 15.32896 12 59 24.93 +07 48 17.1          20.4 V EH005G96
     K07G05Y  C2007 04 15.33713 12 59 20.36 +07 47 15.1          20.3 V EH005G96
     K07G05Y  C2007 04 15.34534 12 59 15.75 +07 46 12.2          20.5 V EH005G96
     K07G05Y  C2007 04 15.38360 12 58 54.39 +07 41 19.9          20.3 V EH005G96
     K07G05Y  C2007 04 15.38478 12 58 53.74 +07 41 10.4          20.5 V EH005G96
     K07G05Y  C2007 04 15.38590 12 58 53.13 +07 41 02.2          20.4 V EH005G96
     K07G05Y tC2007 04 15.90260 12 54 12.25 +06 33 05.1                 EH005246
     K07G05Y tC2007 04 15.90330 12 54 11.79 +06 32 58.2                 EH005246
     K07G05Y  C2007 04 16.12898 12 52 05.26 +06 02 16.0          19.4 R EH005649
     K07G05Y  C2007 04 16.13400 12 52 02.30 +06 01 34.4          20.0 R EH005649
     K07G05Y  C2007 04 16.13651 12 52 00.81 +06 01 14.6          20.1 R EH005649
     K07G05Y  C2007 04 16.13900 12 51 59.29 +06 00 52.5          20.4 R EH005649
     K07G05Y  C2007 04 16.27709 12 50 37.24 +05 41 44.8          20.9 V EH005G96
     K07G05Y  C2007 04 16.27763 12 50 36.92 +05 41 40.1          21.2 V EH005G96
     K07G05Y  C2007 04 16.27817 12 50 36.63 +05 41 36.0          21.2 V EH005G96
     K07G05Y  C2007 04 16.27870 12 50 36.24 +05 41 32.2          20.7 V EH005G96

Observer details:
246 Klet Observatory-KLENOT.  Observers M. Tichy, J. Ticha.  Measurer M. Tichy.
    1.06-m KLENOT Telescope + CCD.
649 Powell Observatory, Louisburg.  Observers R. Fredrick, R. Trentman.
    0.75-m Newtonian reflector + CCD.
G96 Mt. Lemmon Survey.  Observers R. A. Kowalski, R. E. Hill.  Measurers
    E. C. Beshore, E. J. Christensen, G. J. Garradd, A. R. Gibbs, A. D. Grauer,
    R. E. Hill, R. A. Kowalski, S. M. Larson, R. H. McNaught.  1.5-m reflector
    + CCD.

Orbital elements:
2007 GY5                                                 Earth MOID = 0.0747 AU
Epoch 2007 Apr. 10.0 TT = JDT 2454200.5                 MPC
M 324.57451              (2000.0)            P               Q
n   0.53495224     Peri.  247.01876     +0.02363596     +0.98232331
a   1.5028860      Node    26.47476     -0.69452409     +0.14973825
e   0.3948870      Incl.   24.61619     -0.71908110     -0.11233597
P   1.84           H   24.0           G   0.15           U   9
Residuals in seconds of arc
070415 G96  0.5+  0.4-    070415 G96  0.4+  0.7-    070416 649  0.1-  1.7-
070415 G96  0.6+  0.3-    070415 246  1.1+  0.8+    070416 G96  0.3+  0.5-
070415 G96  0.5+  0.2-    070415 246  0.3+  0.4-    070416 G96  0.4+  0.6-
070415 G96  0.1+  0.6-    070416 649  0.1+  1.2-    070416 G96  1.0+  0.1-
070415 G96  0.1+  0.6-    070416 649  0.5+  1.2-    070416 G96  0.0   0.5+
070415 G96  0.2+  1.1-    070416 649  0.5+  0.2-

Ephemeris:
2007 GY5                 a,e,i = 1.50, 0.39, 25                  q = 0.9094
Date    TT    R. A. (2000) Decl.     Delta      r     Elong.  Phase     V
2007 04 10    13 36.96   +16 08.7    0.162    1.151   155.4    21.2    21.4
2007 04 11    13 31.23   +14 57.3    0.154    1.145   156.7    20.3    21.2
2007 04 12    13 24.97   +13 37.0    0.147    1.140   157.9    19.3    21.1
2007 04 13    13 18.10   +12 06.4    0.139    1.134   159.1    18.4    20.9
2007 04 14    13 10.57   +10 24.4    0.132    1.128   160.0    17.7    20.8
2007 04 15    13 02.32   +08 29.7    0.126    1.122   160.6    17.2    20.7
2007 04 16    12 53.28   +06 20.8    0.119    1.117   160.8    17.2    20.5
2007 04 17    12 43.38   +03 56.6    0.113    1.111   160.3    17.7    20.4
2007 04 18    12 32.54   +01 16.2    0.108    1.105   159.0    19.0    20.3
2007 04 19    12 20.70   -01 40.8    0.103    1.100   156.9    21.0    20.3
2007 04 20    12 07.79   -04 54.2    0.0989   1.094   154.0    23.7    20.3
2007 04 21    11 53.77   -08 22.3    0.0954   1.089   150.4    27.1    20.3
2007 04 22    11 38.62   -12 02.4    0.0927   1.083   146.2    31.1    20.3
2007 04 23    11 22.35   -15 50.3    0.0909   1.078   141.5    35.5    20.4
2007 04 24    11 05.02   -19 40.4    0.0899   1.072   136.5    40.2    20.5
2007 04 25    10 46.73   -23 26.6    0.0898   1.067   131.2    45.1    20.6
2007 04 26    10 27.65   -27 02.6    0.0906   1.062   126.0    50.0    20.8
2007 04 27    10 08.00   -30 23.0    0.0923   1.057   120.9    54.8    20.9
2007 04 28    09 48.05   -33 23.8    0.0947   1.052   115.9    59.4    21.1
2007 04 29    09 28.08   -36 02.5    0.0979   1.046   111.3    63.7    21.3
2007 04 30    09 08.38   -38 18.5    0.102    1.041   107.0    67.7    21.5

Timothy B. Spahr             (C) Copyright 2007 MPC           M.P.E.C. 2007-H05

Read MPEC 2007-H04 Read MPEC 2007-H06


Our Web policy. Index to the CBAT/MPC/ICQ pages.


Valid HTML 4.01!